User: anonymous   Login
Location: Grandview
(34.8900°N, 117.1058°W)
Time: 00:10:37
(UTC-07:00)
Language:

N. Korean satellite - Orbit

View from above orbital plane
View from above orbital plane
View from above satellite
View from above satellite

Ground track
Ground track

The orbit data is extracted from the following two-line orbital elements,

1 39026U 12072A   17292.75758776  .00001683  00000-0  66745-4 0  9995
2 39026  97.2196 306.3475 0041950  95.6043 264.9982 15.25931661268982
Epoch (UTC): 19 October 2017 18:10:55
Eccentricity: 0.0041950
inclination: 97.2196°
perigee height: 459 km
apogee height: 517 km
right ascension of ascending node: 306.3475°
argument of perigee: 95.6043°
revolutions per day: 15.25931661
mean anomaly at epoch: 264.9982°
orbit number at epoch: 26898

The dashed part of the orbit path shows where the satellite is in the earth's shadow,  

DLR